Regional Weather Roundup
Issued by NWS

Home | Current Version | Previous Version | Text Only | Print | Product List | Glossary Off
Versions: 1 2 3 4 5 6 7 8 9 10 11 12 13 14 15 16 17 18 19 20 21 22 23 24 25 26 27 28 29 30 31 32 33 34 35 36 37 38 39 40 41 42 43 44 45 46 47 48 49 50

350
ASUS45 KBOU 201507
RWRCO

WEATHER ROUNDUP FOR COLORADO
NATIONAL WEATHER SERVICE DENVER/BOULDER CO
900 AM MDT FRI OCT 20 2017

NOTE: "FAIR" INDICATES FEW OR NO CLOUDS BELOW 12000 FEET WITH NO
SIGNIFICANT WEATHER AND/OR OBSTRUCTIONS TO VISIBILITY.

COZ001>005-013-030-031-201600-
...NORTHWEST COLORADO...

CITY           SKY/WX    TMP DP  RH WIND       PRES   REMARKS
CRAIG          FAIR      47  34  60 NE3       29.83R
HAYDEN         PTSUNNY   49  31  49 E10       29.85S
MEEKER         FAIR      56  35  45 SW3       29.84S
RABBIT EARS PA CLOUDY    39  32  75 SW9G18    30.02S
STEAMBOAT SPGS CLOUDY    39  31  72 CALM      29.86S
WALDEN         NOT AVBL
$$

COZ006>008-011-201600-
...WEST CENTRAL VALLEYS...

CITY           SKY/WX    TMP DP  RH WIND       PRES   REMARKS
GRAND JUNCTION FAIR      60  37  42 SE13      29.81R
MONTROSE       FAIR      54  33  45 SE5       29.91R
EAGLE          PTSUNNY   40  30  67 E3        29.92F
RIFLE          FAIR      51  35  54 W3        29.84S
DELTA          FAIR      55  33  43 CALM      29.89R
NUCLA          NOT AVBL
$$

COZ017>023-064>068-201600-
...SOUTHWEST COLORADO...

CITY           SKY/WX    TMP DP  RH WIND       PRES   REMARKS
DURANGO        FAIR      47  37  68 CALM      30.02S
CORTEZ         FAIR      52  38  58 CALM      29.97R
PAGOSA SPRINGS FAIR      46  39  77 NE3       30.07S
TELLURIDE      FAIR      50  30  46 SE16G25   30.06R
WOLF CREEK PAS HVY SNOW  32  32 100 S20G29    30.23R VSB<1/4 WCI  20
$$

COZ009-010-012-014-032>034-037-058>063-201600-
...CENTRAL COLORADO...

CITY           SKY/WX    TMP DP  RH WIND       PRES   REMARKS
ASPEN          PTSUNNY   46  31  55 E3        29.93S
BUENA VISTA    CLOUDY    42  26  54 CALM      29.99S
COPPER MTN     FAIR      41  28  60 S10G20    30.12F
BERTHOUD PASS  FAIR      32  23  69 W21G39    30.12R WCI  20
COTTONWOOD PAS CLOUDY    46  30  53 CALM      30.04S
GUNNISON       FAIR      36  23  59 CALM      30.03S
KREMMLING      FAIR      36  28  75 CALM      29.97R
LEADVILLE      PTSUNNY   36  25  64 CALM      30.02F
SALIDA         FAIR      52  32  46 S6        30.04S
SUNLIGHT       FAIR      36  28  75 SW20G32   30.07S
WILKERSON PASS FAIR      34  23  64 SW17G24   30.11F WCI  23
$$

COZ069>075-201600-
...SAN LUIS VALLEY/SANGRE DE CRISTO MOUNTAINS...

CITY           SKY/WX    TMP DP  RH WIND       PRES   REMARKS
ALAMOSA        FAIR      51  38  60 S15       30.01S
DEL NORTE      FAIR      46  29  52 CALM      30.03S
LA VETA PASS   FAIR      43  32  65 SW18      30.17S
SAGUACHE       FAIR      43  28  56 CALM      30.04S
$$

COZ035-036-038>040-201600-
...NORTHERN COLORADO FRONT RANGE...

CITY           SKY/WX    TMP DP  RH WIND       PRES   REMARKS
DENVER INTL AP FAIR      60  28  29 SW16      29.76S
DMNS CITY PARK   N/A     58  27  30 SW10      29.76F
AURORA         MOSUNNY   58  28  31 S7        29.78F
FRONT RANGE AP MOSUNNY   61  30  31 S10       29.78R
ERIE MUNI ARPT FAIR      50  37  59 CALM      29.80S
BOULDER MUN AP FAIR      55  34  44 CALM      29.74S
CENTENNIAL     FAIR      59  28  30 CALM      29.79F
BROOMFIELD     NOT AVBL
FORT COLLINS   FAIR      47  36  65 NW3       29.75S
LONGMONT       FAIR      53  39  59 CALM      29.75F
$$

COZ041-046-047-076>085-087-088-201600-
...PIKES PEAK/PALMER DIVIDE AND SOUTHERN FOOTHILLS...

CITY           SKY/WX    TMP DP  RH WIND       PRES   REMARKS
COLO. SPRINGS  PTSUNNY   58  33  39 VRB3      29.83S
A. F. ACADEMY  FAIR      62  27  26 NE5       29.83F
SCHRIEVER AFB  FAIR      59  28  30 N3        29.83S
CHEYENNE MTN   FAIR      60  27  28 CALM      29.81S
ELLICOTT       FAIR     N/A N/A N/A N7        29.81S
FALCON         FAIR      59  27  28 W14G23    29.87S
FORT CARSON    NOT AVBL
LIMON          FAIR      42  41  96 NW5       29.78F
MONUMENT HILL  FAIR      57  30  35 W10       29.88S
CANON CITY     FAIR      61  32  33 CALM      29.83R
WALSENBURG     FAIR      64  37  36 W24G32    29.86S
TRINIDAD       FAIR      59  39  47 VRB5      29.86S
$$

COZ042>045-048>051-090-091-201600-
...NORTHEAST COLORADO...

CITY           SKY/WX    TMP DP  RH WIND       PRES   REMARKS
GREELEY ARPT   FAIR      45  35  68 CALM      29.75S
AKRON          FAIR      52  35  52 W14       29.71F
BURLINGTON     FAIR      55  52  89 S12       29.73F
WRAY           NOT AVBL
YUMA           NOT AVBL
STERLING       NOT AVBL
HOLYOKE        FAIR      59  50  72 S9        29.72S
FORT MORGAN    NOT AVBL
$$

COZ086-089-092>099-201600-
...SOUTHEAST COLORADO...

CITY           SKY/WX    TMP DP  RH WIND       PRES   REMARKS
PUEBLO         FAIR      57  36  45 SW5       29.78R
LA JUNTA       FAIR      59  40  49 W5        29.77R
LAMAR          FAIR      55  46  71 W5        29.74S
SPRINGFIELD    NOT AVBL
$$




USA.gov is the U.S. government's official web portal to all federal, state and local government web resources and services.